[[{"header":{"parameterUnit":"m.s-1","parameterCategory":1,"la1":30.2991,"la2":30.254,"lo1":-89.0895,"lo2":-89.0444,"dy":0.0017,"dx":0.0017,"nx":28,"ny":28,"refTime":"2024-04-29T09:00:00:Z","depth":0,"parameterNumber":2,"parameterNumberName":"U-component_of_WINDS"},"data":[0,0,0,0,0,0,0,0,0,0,0,0,0,0,0,0,0,0,0,0,0,0,0,0,0,0,0,0,0,0,0,0,0,0,0,0,0,0,0,0,0,0,0,0,0,0,0,0,0,0,0,0,0,0,0,0,0,0,-5.8873,-5.8875,0,-5.9037,-5.9039,-5.9041,-5.9041,-5.9038,-5.9036,-5.9034,-5.9198,-5.9204,-5.921,0,0,0,0,0,0,0,0,0,0,0,0,0,-5.8558,-5.8564,-5.8873,-5.8875,-5.8877,-5.9037,-5.9039,-5.9041,-5.9041,-5.9038,-5.9036,-5.9033,-5.9196,-5.9203,-5.9211,0,0,0,0,0,0,0,0,0,0,0,0,0,-5.8705,-5.8565,-5.8873,-5.8896,-5.89,-5.9036,-5.9039,-5.9042,-5.9041,-5.9038,-5.9035,-5.9032,-5.9193,-5.9203,-5.9212,-5.9334,0,0,-5.9241,-5.9245,0,0,0,0,0,0,0,0,-5.8697,-5.8717,-5.8891,-5.8895,-5.89,-5.9015,-5.8988,-5.914,-5.9042,-5.8988,-5.9034,-5.9031,-5.9139,-5.9153,-5.9191,-5.9342,-5.9349,-5.9242,-5.9247,-5.9252,-5.9254,0,0,0,0,0,0,0,-5.8687,-5.871,-5.8938,-5.8893,-5.8899,-5.8898,-5.8916,-5.9017,-5.9079,-5.8992,-5.8993,-5.9012,-5.9141,-5.9182,-5.9194,-5.9351,-5.9241,-5.925,-5.9256,-5.9259,-5.9611,-5.9615,0,0,0,0,0,0,-5.8672,-5.8701,-5.8933,-5.8943,-5.8789,-5.8906,-5.8926,-5.8981,-5.9078,-5.909,-5.9015,-5.9012,-5.9167,-5.9183,-5.92,-5.9349,-5.9251,-5.926,-5.9266,-5.9608,-5.9612,-5.9616,0,0,0,0,0,0,-5.8665,-5.8693,-5.8926,-5.8822,-5.8852,-5.8915,-5.8977,-5.8986,-5.9026,-5.9095,-5.9106,-5.9045,-5.9165,-5.9187,-5.9301,-5.9355,-5.9265,-5.9273,-5.9603,-5.9609,-5.9614,-5.9648,0,0,0,0,0,0,-5.8656,-5.869,-5.8738,-5.8824,-5.8858,-5.9025,-5.8981,-5.8992,-5.9043,-5.9041,-5.9126,-5.9137,-5.9164,-5.9287,-5.9311,-5.9366,-5.9281,-5.9599,-5.9606,-5.9612,-5.9642,-5.9654,-5.9664,0,0,0,0,0,-5.8645,-5.874,-5.874,-5.8768,-5.8918,-5.9028,-5.9047,-5.9078,-5.9048,-5.9095,-5.914,-5.9134,-5.9346,-5.9299,-5.9325,-5.9384,-5.9595,-5.9604,-5.9612,-5.9637,-5.9651,-5.9664,0,0,0,0,0,0,-5.8656,-5.8751,-5.8753,-5.8878,-5.8945,-5.9028,-5.9088,-5.9092,-5.9167,-5.9162,-5.9195,-5.9214,-5.9328,-5.9368,-5.9314,-5.9508,-5.9467,-5.9481,-5.9477,-5.9491,-5.9502,-5.9488,-5.9289,0,0,0,0,0,-5.8674,-5.8756,-5.8834,-5.8937,-5.8971,-5.9025,-5.9073,-5.9092,-5.9162,-5.9189,-5.9242,-5.931,-5.9391,-5.9444,-5.9523,-5.965,-5.9667,-5.9703,-5.9714,-5.9723,-5.9733,-5.9803,-5.9819,-5.9643,-5.9643,-5.9643,0,0,-5.871,-5.8772,-5.8821,-5.8941,-5.8995,-5.9079,-5.9048,-5.9137,-5.9199,-5.9203,-5.9313,-5.9355,-5.9433,-5.9554,-5.9609,-5.959,-5.9787,-5.9733,-5.974,-5.9745,-5.9813,-5.9829,-5.9844,-5.9649,-5.9648,-5.9647,0,0,-5.8818,-5.8874,-5.8966,-5.9021,-5.9105,-5.914,-5.9162,-5.9245,-5.9273,-5.9386,-5.9391,-5.9465,-5.9605,-5.966,-5.9706,-5.9839,-5.9836,-5.9864,-5.9918,-5.9986,-5.9999,-6.0012,-6.0057,-6.0073,-5.9875,-5.9875,-5.9875,0,-5.8851,-5.8978,-5.9012,-5.9102,-5.9155,-5.9165,-5.9257,-5.9309,-5.9413,-5.9449,-5.9427,-5.9604,-5.9657,-5.9791,-5.9823,-5.9861,-5.9887,-5.9852,-5.9995,-6.0008,-6.002,-6.0063,-6.0081,-5.9877,-5.9877,-5.9877,-5.9877,0,-5.9014,-5.9103,-5.9167,-5.9269,-5.9329,-5.942,-5.9467,-5.9524,-5.9538,-5.9576,-5.969,-5.9755,-5.9847,-5.9881,-5.9895,-6.0017,-6.0003,-5.9988,-5.9946,-6.0039,-6.008,-6.0097,-5.9881,-5.988,-5.9879,-5.9879,0,0,-5.913,-5.9252,-5.9275,-5.9322,-5.9416,-5.9484,-5.9576,-5.9668,-5.9715,-5.9788,-5.9865,-5.9985,-5.9973,-6.0025,-6.0046,-6.0105,-6.0204,-6.0083,-6.0086,-6.0101,-6.0342,-6.035,-6.0369,-6.0205,-6.0209,-6.0211,-6.0335,0,-5.9246,-5.941,-5.9445,-5.9586,-5.9667,-5.968,-5.976,-5.9826,-5.9864,-5.9938,-5.9981,-6.0064,-6.0042,-6.0074,-6.0134,-6.018,-6.0253,-6.0172,-6.0275,-6.0278,-6.0252,-6.0391,-6.04,-6.0513,-6.0351,-6.0354,-6.0356,0,-5.9402,-5.948,-5.963,-5.9714,-5.9749,-5.9821,-5.9908,-5.998,-6.0055,-6.0079,-6.014,-6.0155,-6.025,-6.0208,-6.0339,-6.0283,-6.0328,-6.0357,-6.0362,-6.037,-6.032,-6.04,-6.055,-6.0566,-6.0382,-6.038,-6.0378,0,-5.9468,-5.9611,-5.9719,-5.9759,-5.9861,-5.9911,-5.9955,-6.0028,-6.0081,-6.0158,-6.0193,-6.028,-6.0326,-6.0393,-6.0431,-6.0396,-6.0559,-6.0519,-6.058,-6.0579,-6.061,-6.0607,-6.0766,-6.0644,-6.0644,-6.0644,-6.0643,0,-5.9592,-5.9682,-5.975,-5.9816,-5.9919,-5.9959,-6.0058,-6.0102,-6.0167,-6.0242,-6.0259,-6.0328,-6.0375,-6.0451,-6.0481,-6.0585,-6.0606,-6.0627,-6.0633,-6.0624,-6.0621,-6.0651,-6.0643,-6.0648,-6.0647,-6.0646,-6.0646,0,-5.9682,-5.9731,-5.9849,-5.9937,-5.9962,-6.0033,-6.0107,-6.0172,-6.0212,-6.0306,-6.033,-6.0393,-6.0483,-6.0529,-6.0641,-6.0662,-6.0778,-6.0781,-6.0752,-6.0754,-6.0811,-6.0804,-6.0992,-6.1019,-6.0882,-6.0883,-6.0884,0,-5.9756,-5.9826,-5.9922,-5.9974,-6.002,-6.0103,-6.0159,-6.0202,-6.0258,-6.0351,-6.0404,-6.0496,-6.0571,-6.0715,-6.077,-6.0856,-6.0859,-6.092,-6.0872,-6.086,-6.0857,-6.0851,-6.0858,-6.0927,-6.0928,-6.0929,-6.093,0,-5.9881,-5.9903,-5.9983,-6.0072,-6.0138,-6.021,-6.0281,-6.0322,-6.0376,-6.0439,-6.0533,-6.0592,-6.0708,-6.0798,-6.0888,-6.0933,-6.094,-6.0945,-6.0963,-6.0952,-6.0932,-6.0942,-6.0772,-6.094,-6.0939,-6.0938,-6.0937,-6.0937,-5.9964,-6.0027,-6.0105,-6.0194,-6.0252,-6.0318,-6.0383,-6.0433,-6.0512,-6.061,-6.0631,-6.073,-6.0805,-6.0928,-6.0976,-6.1053,-6.104,-6.1066,-6.1073,-6.1078,-6.108,-6.0923,-6.107,-6.107,-6.107,-6.107,-6.1069,0,-6.0089,-6.014,-6.0222,-6.0321,-6.0391,-6.0395,-6.0474,-6.0531,-6.0618,-6.0689,-6.0763,-6.0871,-6.0959,-6.1022,-6.1112,-6.1162,-6.1167,-6.1184,-6.1179,-6.1189,-6.1087,-6.1062,-6.1178,-6.1178,-6.1178,-6.1178,-6.1178,-6.1178,-6.0162,-6.0268,-6.03,-6.0436,-6.0486,-6.0584,-6.0629,-6.069,-6.0746,-6.0866,-6.094,-6.0982,-6.1049,-6.1144,-6.1226,-6.1242,-6.1273,-6.1289,-6.1305,-6.1208,-6.1196,-6.1185,-6.1161,-6.1296,-6.1296,-6.14,-6.1401,-6.1401]},{"header":{"parameterUnit":"m.s-1","parameterCategory":1,"la1":30.2991,"la2":30.254,"lo1":-89.0895,"lo2":-89.0444,"dy":0.0017,"dx":0.0017,"nx":28,"ny":28,"refTime":"2024-04-29T09:00:00:Z","depth":0,"parameterNumber":3,"parameterNumberName":"V-component_of_WINDS"},"data":[0,0,0,0,0,0,0,0,0,0,0,0,0,0,0,0,0,0,0,0,0,0,0,0,0,0,0,0,0,0,0,0,0,0,0,0,0,0,0,0,0,0,0,0,0,0,0,0,0,0,0,0,0,0,0,0,0,0,5.1529,5.153,0,5.1572,5.1573,5.1573,5.1479,5.1476,5.1472,5.147,5.1513,5.1517,5.1521,0,0,0,0,0,0,0,0,0,0,0,0,0,5.1365,5.1369,5.1529,5.153,5.153,5.1572,5.1573,5.1573,5.1479,5.1475,5.1472,5.1468,5.1512,5.1517,5.1521,0,0,0,0,0,0,0,0,0,0,0,0,0,5.1425,5.137,5.1529,5.1488,5.1485,5.1572,5.1573,5.1573,5.148,5.1475,5.1471,5.1466,5.151,5.1516,5.1522,5.165,0,0,5.154,5.1543,0,0,0,0,0,0,0,0,5.1422,5.1431,5.1494,5.1491,5.1488,5.1515,5.1531,5.1599,5.1481,5.1482,5.147,5.1464,5.1518,5.1523,5.1541,5.1652,5.1654,5.1541,5.1545,5.1547,5.1549,0,0,0,0,0,0,0,5.1418,5.1429,5.1546,5.1495,5.1491,5.1468,5.1471,5.1543,5.1525,5.1481,5.1475,5.1481,5.1515,5.1535,5.1541,5.1655,5.1541,5.1546,5.155,5.1552,5.1873,5.1878,0,0,0,0,0,0,5.1419,5.1426,5.1545,5.1547,5.1443,5.1474,5.1478,5.1511,5.1524,5.1521,5.1485,5.1477,5.1527,5.1534,5.1542,5.1693,5.1547,5.1553,5.1556,5.1868,5.1874,5.188,0,0,0,0,0,0,5.1416,5.1431,5.1543,5.1485,5.1497,5.1482,5.152,5.1514,5.1534,5.1526,5.1522,5.1509,5.1524,5.1534,5.1624,5.1693,5.1555,5.1561,5.1862,5.187,5.1877,5.1996,0,0,0,0,0,0,5.1412,5.143,5.1479,5.1487,5.1501,5.1625,5.1524,5.1518,5.1545,5.1534,5.1548,5.1546,5.1521,5.1616,5.163,5.1699,5.1566,5.1856,5.1866,5.1875,5.1986,5.2006,5.2024,0,0,0,0,0,5.1406,5.1511,5.1482,5.1497,5.1562,5.1629,5.1637,5.1607,5.1551,5.16,5.1594,5.1545,5.1683,5.1626,5.1641,5.1713,5.1852,5.1863,5.1874,5.1977,5.2002,5.2024,0,0,0,0,0,0,5.1511,5.1511,5.1479,5.1589,5.161,5.1613,5.1673,5.1634,5.1671,5.166,5.162,5.1624,5.1722,5.1726,5.1662,5.1837,5.1758,5.1773,5.1831,5.1855,5.1874,5.1871,5.1571,0,0,0,0,0,5.1547,5.1602,5.1598,5.1696,5.1708,5.1689,5.1717,5.1692,5.1712,5.172,5.1721,5.1742,5.179,5.1823,5.1866,5.1985,5.1987,5.2042,5.2062,5.2077,5.2091,5.2154,5.2178,5.1916,5.1916,5.1916,0,0,5.1622,5.1628,5.1665,5.1717,5.173,5.1788,5.1697,5.1762,5.1804,5.173,5.1815,5.1817,5.1838,5.1943,5.1989,5.195,5.2163,5.2092,5.2104,5.2109,5.2168,5.2193,5.2215,5.1924,5.1922,5.1921,0,0,5.1788,5.1798,5.1881,5.1895,5.1916,5.1903,5.1923,5.1932,5.193,5.2015,5.1961,5.201,5.2094,5.2111,5.213,5.2302,5.2258,5.2318,5.2418,5.248,5.2501,5.2519,5.258,5.2603,5.2331,5.2331,5.2331,0,5.1878,5.1963,5.1928,5.1996,5.2021,5.1956,5.2039,5.2055,5.2089,5.2107,5.2062,5.2165,5.2175,5.2283,5.2325,5.2343,5.2364,5.2316,5.2501,5.2518,5.2535,5.2593,5.2616,5.2338,5.2337,5.2337,5.2336,0,5.2073,5.2132,5.2196,5.2231,5.2262,5.2338,5.2314,5.235,5.2322,5.2314,5.2401,5.241,5.2454,5.2478,5.2451,5.2583,5.2557,5.2507,5.2427,5.2568,5.2622,5.2644,5.2348,5.2346,5.2344,5.2342,0,0,5.2306,5.2321,5.2345,5.236,5.2378,5.2423,5.2495,5.2538,5.257,5.2596,5.2655,5.2727,5.2681,5.2703,5.2678,5.2732,5.2868,5.2675,5.2675,5.2711,5.3014,5.3052,5.3078,5.2839,5.2843,5.2846,5.3012,0,5.2471,5.2595,5.2566,5.2689,5.2743,5.2682,5.2745,5.2763,5.2757,5.2802,5.2795,5.2847,5.2782,5.2795,5.2846,5.2841,5.2928,5.2828,5.2894,5.2897,5.2891,5.3106,5.3146,5.3302,5.3033,5.3036,5.3039,0,5.2679,5.2713,5.2841,5.285,5.2872,5.2929,5.2966,5.301,5.3029,5.3021,5.3046,5.301,5.3081,5.3,5.3097,5.303,5.3055,5.3056,5.3062,5.3067,5.2977,5.3118,5.3351,5.3375,5.3072,5.3069,5.3067,0,5.2837,5.2914,5.3001,5.3015,5.3028,5.307,5.3077,5.3091,5.3119,5.3152,5.3169,5.321,5.3232,5.3264,5.324,5.3183,5.3341,5.3258,5.3337,5.3337,5.3373,5.3371,5.3615,5.3389,5.3389,5.3388,5.3388,0,5.3023,5.3105,5.3072,5.3126,5.3215,5.318,5.3269,5.3269,5.3282,5.3334,5.3284,5.3334,5.3299,5.3346,5.3327,5.3411,5.3421,5.3416,5.3411,5.3421,5.3422,5.3438,5.3426,5.3394,5.3393,5.3392,5.3391,0,5.3215,5.3196,5.3287,5.3292,5.3295,5.336,5.3364,5.3413,5.3403,5.347,5.3484,5.3468,5.3521,5.35,5.3556,5.3543,5.3651,5.363,5.3645,5.3639,5.3719,5.3712,5.3982,5.4015,5.3768,5.377,5.3772,0,5.3336,5.3397,5.3408,5.3439,5.345,5.3501,5.3529,5.3497,5.3529,5.3554,5.3601,5.365,5.3687,5.3774,5.3768,5.381,5.3791,5.3882,5.3797,5.3806,5.3793,5.379,5.3796,5.3899,5.3902,5.3905,5.3906,0,5.3552,5.354,5.3582,5.3622,5.3657,5.3687,5.3712,5.374,5.3709,5.3747,5.3801,5.3829,5.3886,5.3935,5.3973,5.398,5.3939,5.3933,5.3954,5.3966,5.3972,5.397,5.3692,5.3927,5.3925,5.3924,5.3923,5.3922,5.3712,5.3763,5.3779,5.3828,5.3843,5.3868,5.3915,5.3911,5.3955,5.3999,5.3977,5.4039,5.4056,5.4102,5.4115,5.4163,5.4127,5.4157,5.4165,5.4173,5.4184,5.3964,5.417,5.4169,5.4169,5.4168,5.4168,0,5.3926,5.3933,5.3978,5.4015,5.4054,5.4011,5.4036,5.4072,5.4127,5.4146,5.4184,5.4245,5.4292,5.429,5.4333,5.4372,5.4354,5.4385,5.4382,5.4384,5.4213,5.4191,5.4398,5.4398,5.4398,5.4398,5.4398,5.4398,5.4042,5.4126,5.4116,5.4208,5.4214,5.4275,5.4293,5.4315,5.433,5.4402,5.444,5.4438,5.4449,5.4492,5.4533,5.4531,5.455,5.4588,5.4579,5.4419,5.4396,5.4374,5.4354,5.4592,5.4592,5.4746,5.4747,5.4749]}]]